Location: Poughquag
(41.6090°N, 73.6820°W)
Time: 12:09:12
(UTC-04:00)

Courier 1B - Pass Details

Date: 04 June 2020
Orbit: 962 x 1209 km, 28.3° (Epoch: 05 July)

Event Time Altitude Azimuth Distance (km) Brightness Sun altitude
Rises 23:00:48 0° 234° (SW) 3,820 10.5 -20.7°
Reaches altitude 10° 23:03:57 10° 222° (SW) 2,909 9.8 -21.0°
Enters shadow 23:06:25 19° 205° (SSW) 2,350 9.1 -21.2°
